STARLINK-32845, 62815

Orbit data source: Space-Track

STARLINK-32845, 62815 is a payload satellite owned by SpaceX/Seattle (US) in LEO that was launched on Fri, 24 Jan 2025 UTC via an FALCON 9 launch vehicle from the Air Force Western Test Range (AFWTR). Payload-class satellites include a variety of spacecraft equipped with specific instruments for various scientific and technological missions. These include communications satellites like Starlink; space stations such as the ISS; scientific satellites like the Hubble; Earth observation satellites from companies like Planet Labs, Umbra, and HawkEye 360; GPS; miniature CubeSats for education and research; and military/defense satellites.

Loading next visibility...
Identifier
62815, 2025-018K
Orbit
LEO
Last TLE update
11 hours ago
Origin
Manufacturer
SpaceX/Seattle
Mission
Operational Commercial Communications
Bus & Motor
STARLINK V2M, Unknown motor
Mass
730 kg wet, ~700 kg dry
Launch date (UTC)
2025-01-24 (5 months ago)
Launch vehicle
FALCON 9
Launch site
Air Force Western Test Range (AFWTR)
Object type
Payload
Rocket body
Debris
Shape & HBR
Box + 2 Pan, 29 m
Radar Cross Section
33.884 m², Large (>1 m²)

Expand to show TLE details & history

TLE from 11 hours ago
0 STARLINK-32845
1 62815U 25018K   25181.91507728  .00019383  00000-0  66482-3 0  9997
2 62815  53.1594  38.8497 0001092 117.3515 242.7597 15.30200605 24627
Epoch: 2025-06-30T21:57Z
TLE epoch observation values (Epoch: 2025-06-30T21:57:42.676Z)
Latitude
-0.00005°
Longitude
150.20381°
Altitude
476.456 km
Speed
7.629 km/s
True Right ascension
02h 35m 23s
True Declination
0° 00' 00"
Sunlit
Object was in daylight at epoch
Visualization orbit readout
Latitude
-28.62732°
Longitude
124.11375°
Altitude
484.455 km
Speed
7.623 km/s
Apparent Right ascension
04h 02m 05s
Apparent Declination
-50° 24' 16"
Sunlit
Object is in daylight
Visualization observer readout
Local Sidereal Time
20:24:41
Azimuth
126.033° SE
Elevation
-44.107°
Doppler factor
1
Orbital elements
Apogee altitude
476.218 km
Perigee altitude
474.721 km
Semi-major axis
6,853.607 km
Eccentricity
0.00011
Inclination
53.1594°
RAAN
38.8497°
Arg. of periapsis
117.3515°
True anomaly
Unknown
Mean anomaly
242.7597°
Eccentric anomaly
Unknown
Mean motion
3.82529 °/min
Orbital period
94.11 mins
BSTAR
0.00066482
Loading maneuver chart data...
Loading SW <> Apogee altitude chart data...
Loading historical data...
Loading historical data...
Loading historical data...
Loading historical data...
Loading historical data...
Loading historical data...
Loading historical data...

STARLINK-32845 Visibility forecast

Observer location: undefined°, undefined°

Span
Click to sort rows by Start time (UTC) header in descending order
Start Az.
Max El. time (UTC)
Max El. Az.
Max El.
End time (UTC)
End Az.
6 mins2025-07-01 16:56:30.847Z216.434° SW2025-07-01 16:59:30.847Z146.145° SSE41.586°2025-07-01 17:02:30.847Z57.781° ENE
4 mins2025-07-01 18:36:30.847Z305.267° NW2025-07-01 18:37:30.847Z327.901° NNW20.341°2025-07-01 18:40:30.847Z25.537° NE
5 mins2025-07-01 23:32:30.847Z326.369° NNW2025-07-01 23:34:30.847Z28.695° NE38.562°2025-07-01 23:37:30.847Z111.478° ESE
|